Regional Weather Roundup
Issued by NWS

Home | Current Version | Previous Version | Graphics & Text | Print | Product List | Glossary Off
Versions: 1 2 3 4 5 6 7 8 9 10 11 12 13 14 15 16 17 18 19 20 21 22 23 24 25 26 27 28 29 30 31 32 33 34 35 36 37 38 39 40 41 42 43 44 45 46 47 48 49 50

000
ASUS43 KTOP 261008
RWRKS

WEATHER ROUNDUP FOR KANSAS
NATIONAL WEATHER SERVICE GOODLAND KS
500 AM CDT SUN APR 26 2015

NOTE:  "FAIR" INDICATES FEW OR NO CLOUDS BELOW 12,000 FEET WITH NO
SIGNIFICANT WEATHER AND/OR OBSTRUCTIONS TO VISIBILITY.

KSZ001>006-013>018-027>032-041>047-261100-
NORTHWEST KANSAS

CITY           SKY/WX    TMP DP  RH WIND       PRES   REMARKS
GOODLAND       CLOUDY    44  44 100 E20       29.82R FOG
HAYS           CLOUDY    46  39  76 NE14      29.85R
HILL CITY      CLOUDY    47  45  93 E15       29.87R FOG
RUSSELL        CLOUDY    47  46  97 NE10      29.83R FOG
$$

KSZ061>065-074>080-084>089-261100-
SOUTHWEST KANSAS

CITY           SKY/WX    TMP DP  RH WIND       PRES   REMARKS
DODGE CITY     FOG       49  47  93 NE17      29.78S VSB 1/4
ELKHART          N/A     52  45  77 E18         N/A
GARDEN CITY    FOG       48  48 100 E22       29.76R VSB 1/2
GREAT BEND     CLOUDY    48  45  87 E14       29.82S
LIBERAL        CLOUDY    54  48  82 E18       29.73R
$$

KSZ066>073-081>083-090>101-261100-
SOUTHEAST KANSAS

CITY           SKY/WX    TMP DP  RH WIND       PRES   REMARKS
CHANUTE        CLOUDY    51  49  92 NE8       29.81R
COFFEYVILLE    CLOUDY    53  50  89 NE12G18   29.80R
HUTCHINSON     CLOUDY    50  45  83 NE8       29.82R
MEDICINE LODGE   N/A     51  49  92 NE16G22   29.77S
NEWTON         CLOUDY    48  43  81 NE9       29.83R
PARSONS        CLOUDY    53  50  89 NE8       29.80R
WICHITA INTL   CLOUDY    51  46  83 NE17      29.81R
WICHITA JABRA  CLOUDY    49  46  90 E13       29.81R
WICHITA MCCONL CLOUDY    50  47  88 NE12      29.80R
WINFIELD       CLOUDY    52  48  86 E15       29.80R
$$

KSZ007>012-019>026-033>040-048>060-102>105-261100-
NORTHEAST KANSAS

CITY           SKY/WX    TMP DP  RH WIND       PRES   REMARKS
CONCORDIA      CLOUDY    47  45  93 E13       29.87R FOG
EMPORIA        CLOUDY    48  47  96 NE9       29.82S FOG
LAWRENCE       CLOUDY    49  45  86 NE8       29.86R
MANHATTAN      CLOUDY    49  47  93 NE10      29.85S FOG
MARYSVILLE     CLOUDY    46  45  93 NE10      29.88S FOG
OLATHE IND     CLOUDY    49  46  90 NE12      29.84S
OLATHE EXE     CLOUDY    48  46  93 NE10G20   29.84R FOG
SALINA         CLOUDY    50  46  86 NE9       29.85R
TOPEKA BILLARD CLOUDY    50  46  86 NE10      29.86R
TOPEKA FORBES  CLOUDY    50  46  86 NE12      29.84R
$$


USA.gov is the U.S. government's official web portal to all federal, state and local government web resources and services.